Flag for U.S.A. Weather past 2 weeks in Charleston, West Virginia, U.S.A.

Now
71 °F

Partly sunny.


Feels Like: 75 °F
Forecast: 63 / 73 °F
Wind: 14 mph from Northwest

Location: Yeager Airport

Current Time: Jul 28, 2014 at 1:12:33 PM

Latest Report: Jul 28, 2014 at 12:54 PM


Visibility: 10 mi

Pressure: 29.88 "Hg

Humidity: 68%

Dew point: 60 °F

Location of CharlestonLocation

Historic Weather in Charleston — Graph

°F

Charleston temperature yesterday

Maximum temperature yesterday: 82 °F (at 4:54 PM)
Minimum temperature yesterday: 69 °F (at 10:54 PM)
Average temperature yesterday: 75 °F

Past Weeks' High & Low Weather Summary

 TemperatureHumidityPressure
High93 °F (Jul 13, 3:54 PM)100% (Jul 14, 1:54 AM)30.19 "Hg (Jul 14, 1:54 AM)
Low56 °F (Jul 17, 2:54 AM)36% (Jul 17, 3:54 PM)29.71 "Hg (Jul 27, 6:54 PM)
Average72 °F81%29.98 "Hg
* Reported Jul 13 11:54 AM — Jul 28 11:54 AM, Charleston, Weather by CustomWeather, © 2014

Note: Actual official high and low records may vary slightly from our data, if they occured in-between our weather recording intervals... More about our weather records

Advertising

Charleston weather history for previous 24 hours

 ConditionsComfort  
Time TempWeatherWind HumidityBarometerVisibility
11:54 AM
Jul 28
69 °FMostly cloudy.9 mph76%29.87 "Hg10 mi
10:54 AM68 °FOvercast.7 mph78%29.85 "Hg10 mi
9:54 AM68 °FOvercast.12 mph78%29.84 "Hg10 mi
8:54 AM68 °FBroken clouds.9 mph84%29.82 "Hg10 mi
7:54 AM67 °FScattered clouds.9 mph90%29.80 "Hg10 mi
6:54 AM66 °FPassing clouds.7 mph96%29.79 "Hg10 mi
5:54 AM67 °FClear.8 mph93%29.77 "Hg10 mi
4:54 AM68 °FPassing clouds.14 mph90%29.75 "Hg10 mi
3:54 AM69 °FClear.13 mph90%29.75 "Hg10 mi
2:54 AM69 °FPassing clouds.12 mph93%29.75 "Hg10 mi
1:54 AM68 °FPassing clouds.10 mph96%29.75 "Hg10 mi
12:54 AM69 °FOvercast.10 mph96%29.74 "Hg9 mi
11:54 PM
Jul 27
70 °FThunderstorms. Fog.10 mph93%29.74 "Hg5 mi
11:03 PM69 °FPassing clouds.6 mph96%29.77 "Hg10 mi
10:54 PM69 °FThunderstorms. Partly cloudy.8 mph93%29.74 "Hg8 mi
9:58 PM77 °FThunderstorms. Partly cloudy.6 mph79%29.73 "Hg10 mi
8:54 PM78 °FBroken clouds.12 mph76%29.72 "Hg10 mi
7:54 PM80 °FBroken clouds.13 mph69%29.72 "Hg10 mi
6:54 PM81 °FBroken clouds.16 mph69%29.71 "Hg10 mi
5:54 PM81 °FPartly sunny.18 mph69%29.71 "Hg10 mi
4:54 PM82 °FBroken clouds.10 mph67%29.73 "Hg10 mi
3:54 PM81 °FScattered clouds.14 mph65%29.75 "Hg10 mi
2:54 PM80 °FBroken clouds.3 mph71%29.77 "Hg10 mi
1:54 PM78 °FBroken clouds.5 mph74%29.82 "Hg10 mi
Weather by CustomWeather, © 2014

See weather overviewHow to use our weather pages